User: anonymous   Login
Location: Shell Point
(30.0571°N, 84.2896°W)
Time: 11:58:53
(UTC-05:00)
Language:

Meteor 2-19 Rocket - Orbit

View from above orbital plane
View from above orbital plane
View from above satellite
View from above satellite

Ground track
Ground track

The orbit data is extracted from the following two-line orbital elements,

1 20671U 90057B   17350.17897714  .00000031  00000-0  14523-4 0  9990
2 20671  82.5476 227.4468 0015540 161.3138 198.8597 13.84611237388250
Epoch (UTC): 16 December 2017 04:17:43
Eccentricity: 0.0015540
inclination: 82.5476°
perigee height: 936 km
apogee height: 959 km
right ascension of ascending node: 227.4468°
argument of perigee: 161.3138°
revolutions per day: 13.84611237
mean anomaly at epoch: 198.8597°
orbit number at epoch: 38825

The dashed part of the orbit path shows where the satellite is in the earth's shadow,  

DLR